Troy, MI

9:05 AM EDT on September 26, 2017 (GMT -0400)
Troy

Weather History for KVLL - January, 2014

Change the Weather History Date:

Wednesday, January 22, 2014

  Actual Average (KDET) Record (KDET)
Temperature  
Mean Temperature 4 °F -  
Max Temperature 10 °F 33 °F 52 °F (1957)
Min Temperature -2 °F 22 °F 0 °F (1970)
Degree Days  
Heating Degree Days 61    
Moisture  
Dew Point -3 °F    
Average Humidity 71    
Maximum Humidity 85    
Minimum Humidity 52    
Precipitation  
Precipitation 0.00 in - - ()
Sea Level Pressure  
Sea Level Pressure 30.06 in    
Wind  
Wind Speed 4 mph (SSW)    
Max Wind Speed 13 mph    
Max Gust Speed 17 mph    
Visibility 7 miles    
Events Snow    
Averages and records for this station are not official NWS values.
T = Trace of Precipitation, MM = Missing Value Source: NWS Daily Summary

Daily Weather History Graph

Daily Weather History Graph

Search for Another Location

Airport or City:

Trip Planner

Search our weather history database for the weather conditions in past years. The results will help you decide how hot, cold, wet, or windy it might be!

Date:

Astronomy

Jan. 22, 2014 Rise Set
Actual Time 7:55 AM EST 5:33 PM EST
Civil Twilight 7:24 AM EST 6:04 PM EST
Nautical Twilight 6:50 AM EST 6:38 PM EST
Astronomical Twilight 6:17 AM EST 7:11 PM EST
Moon No Moon Rise 10:47 AM EST (1/22)
Length of Visible Light 10h 39m
Length of Day
9h 37m
Waning Gibbous, 65% of the Moon is Illuminated
Jan 22
Waning Gibbous
Jan 24
Last Quarter
Jan 30
New
Feb 6
First Quarter
Feb 14
Full

Hourly Weather History & Observations

Time (EST) Temp. Windchill Dew Point Humidity Pressure Visibility Wind Dir Wind Speed Gust Speed Precip Events Conditions
12:13 AM 1.0 °F -6.7 °F -6.9 °F 69% 30.19 in 10.0 mi WSW 3.5 mph - N/A   Clear
12:34 AM 0.7 °F -7.1 °F -6.7 °F 71% 30.19 in 10.0 mi West 3.5 mph - N/A   Clear
12:55 AM 0.3 °F -7.5 °F -6.7 °F 72% 30.19 in 10.0 mi West 3.5 mph - N/A   Clear
1:14 AM -0.6 °F -8.5 °F -7.6 °F 72% 30.18 in 10.0 mi WSW 3.5 mph - N/A   Clear
1:34 AM -0.4 °F -8.3 °F -7.6 °F 72% 30.17 in 10.0 mi West 3.5 mph - N/A   Clear
1:54 AM 0.1 °F -7.7 °F -7.2 °F 71% 30.17 in 10.0 mi West 3.5 mph - N/A   Clear
2:15 AM -0.0 °F -7.9 °F -8.0 °F 69% 30.17 in 10.0 mi WNW 3.5 mph - N/A   Clear
2:34 AM -0.4 °F -10.4 °F -8.1 °F 70% 30.17 in 10.0 mi WNW 4.6 mph - N/A   Clear
2:54 AM -0.8 °F -12.5 °F -8.5 °F 70% 30.17 in 10.0 mi WNW 5.8 mph - N/A   Clear
3:14 AM -0.4 °F -8.3 °F -8.3 °F 69% 30.16 in 10.0 mi WNW 3.5 mph - N/A   Clear
3:35 AM -0.8 °F - -8.7 °F 69% 30.15 in 10.0 mi Calm Calm - N/A   Clear
3:54 AM -1.3 °F - -8.5 °F 72% 30.15 in 10.0 mi Calm Calm - N/A   Clear
4:15 AM -0.6 °F - -8.9 °F 68% 30.15 in 10.0 mi Calm Calm - N/A   Clear
4:34 AM -1.7 °F - -8.9 °F 71% 30.14 in 10.0 mi Calm Calm - N/A   Clear
4:55 AM -1.5 °F - -8.9 °F 71% 30.14 in 10.0 mi Calm Calm - N/A   Clear
5:01 AM -1.7 °F - -9.2 °F 70% 30.14 in 10.0 mi Calm Calm - N/A   Clear
5:34 AM -1.5 °F - -8.3 °F 73% 30.14 in 10.0 mi Calm Calm - N/A   Clear
5:54 AM -2.4 °F - -7.8 °F 78% 30.13 in 10.0 mi Calm Calm - N/A   Clear
6:14 AM -2.4 °F - -7.4 °F 79% 30.11 in 10.0 mi Calm Calm - N/A   Clear
6:35 AM -2.2 °F -10.4 °F -8.5 °F 75% 30.12 in 10.0 mi WSW 3.5 mph - N/A   Clear
6:55 AM -2.9 °F - -8.5 °F 77% 30.12 in 10.0 mi Calm Calm - N/A   Clear
7:14 AM -2.4 °F - -8.5 °F 75% 30.12 in 10.0 mi Calm Calm - N/A   Scattered Clouds
7:35 AM -1.3 °F - -7.6 °F 75% 30.11 in 10.0 mi Calm Calm - N/A   Scattered Clouds
7:54 AM -1.1 °F - -7.2 °F 75% 30.11 in 10.0 mi Calm Calm - N/A   Mostly Cloudy
8:14 AM -0.4 °F - -6.9 °F 74% 30.11 in 10.0 mi Calm Calm - N/A   Overcast
8:34 AM 1.0 °F -6.7 °F -6.5 °F 71% 30.10 in 10.0 mi SW 3.5 mph - N/A   Overcast
8:54 AM 1.8 °F - -6.2 °F 69% 30.11 in 10.0 mi Calm Calm - N/A   Overcast
9:15 AM 2.5 °F - -5.8 °F 68% 30.10 in 10.0 mi Calm Calm - N/A   Overcast
9:31 AM 3.7 °F -9.6 °F -6.0 °F 64% 30.10 in 10.0 mi SW 8.1 mph - N/A   Overcast
9:52 AM 4.1 °F -10.2 °F -6.0 °F 63% 30.09 in 10.0 mi SSW 9.2 mph - N/A   Overcast
10:12 AM 5.0 °F -9.1 °F -5.4 °F 62% 30.09 in 10.0 mi South 9.2 mph - N/A   Overcast
10:33 AM 5.5 °F -6.3 °F -5.8 °F 60% 30.09 in 10.0 mi SW 6.9 mph - N/A   Overcast
10:51 AM 6.3 °F -5.4 °F -5.4 °F 59% 30.08 in 10.0 mi SSW 6.9 mph - N/A   Overcast
11:10 AM 6.6 °F -6.1 °F -5.6 °F 57% 30.08 in 10.0 mi SSW 8.1 mph - N/A   Overcast
11:14 AM 6.8 °F -6.9 °F -5.6 °F 57% 30.08 in 10.0 mi SSW 9.2 mph - N/A   Overcast
11:46 AM 7.9 °F -4.6 °F -5.4 °F 55% 30.07 in 10.0 mi SSW 8.1 mph - N/A   Overcast
12:13 PM 8.2 °F -6.0 °F -4.5 °F 56% 30.05 in 5.0 mi SSW 10.4 mph - N/A   Haze
12:30 PM 8.1 °F -4.3 °F -3.1 °F 60% 30.04 in 2.5 mi SSW 8.1 mph - N/A   Haze
12:49 PM 8.2 °F -5.1 °F -1.3 °F 65% 30.03 in 3.0 mi South 9.2 mph - N/A   Haze
1:07 PM - - - N/A% 30.02 in 7.0 mi SSW 10.4 mph - N/A   Overcast
1:37 PM 10.4 °F -4.8 °F -4.0 °F 52% 30.00 in 10.0 mi South 12.7 mph 17.3 mph N/A   Overcast
1:51 PM - - - N/A% 30.00 in 4.0 mi SSW 10.4 mph - N/A   Haze
2:02 PM 10.4 °F -1.5 °F -0.4 °F 62% 30.00 in 5.0 mi SSW 8.1 mph - N/A   Haze
2:13 PM - - - N/A% 29.99 in 4.0 mi South 9.2 mph - N/A   Haze
2:28 PM 10.4 °F 0.8 °F -0.4 °F 62% 29.99 in 5.0 mi SSW 5.8 mph - N/A   Haze
2:36 PM - - - N/A% 29.99 in 5.0 mi SSW 5.8 mph - N/A   Haze
2:51 PM - - - N/A% 29.98 in 2.0 mi South 8.1 mph - N/A   Unknown
3:06 PM - - - N/A% 29.98 in 2.5 mi South 6.9 mph - N/A   Unknown
3:28 PM - - - N/A% 29.98 in 1.8 mi South 6.9 mph - N/A   Unknown
3:58 PM 10.4 °F -2.4 °F 3.2 °F 73% 29.97 in 2.0 mi South 9.2 mph - N/A Snow Light Snow
4:17 PM 10.4 °F -2.4 °F 3.2 °F 73% 29.98 in 2.0 mi South 9.2 mph - N/A Snow Light Snow
4:38 PM 10.4 °F -0.4 °F 5.0 °F 79% 29.98 in 2.5 mi SSE 6.9 mph - N/A Snow Light Snow
4:59 PM 10.4 °F -1.5 °F 3.2 °F 73% 29.97 in 3.0 mi SSE 8.1 mph - N/A   Haze
5:19 PM 10.4 °F -0.4 °F 3.2 °F 73% 29.97 in 3.0 mi SSE 6.9 mph - N/A Snow Light Snow
5:39 PM 10.4 °F -1.5 °F 3.2 °F 73% 29.97 in 7.0 mi South 8.1 mph - N/A   Mostly Cloudy
6:00 PM 10.4 °F -1.5 °F 5.0 °F 79% 29.97 in 5.0 mi South 8.1 mph - N/A Snow Light Snow
6:17 PM 10.4 °F -1.5 °F 5.0 °F 79% 29.98 in 4.0 mi South 8.1 mph - N/A Snow Light Snow
6:39 PM 10.4 °F -2.4 °F 5.0 °F 79% 29.97 in 3.0 mi South 9.2 mph - N/A Snow Light Snow
6:58 PM 10.4 °F -3.3 °F 5.0 °F 79% 29.98 in 3.0 mi South 10.4 mph - N/A Snow Light Snow
7:18 PM 10.4 °F -3.3 °F 5.0 °F 79% 29.97 in 3.0 mi South 10.4 mph - N/A Snow Light Snow
7:49 PM 10.4 °F -2.4 °F 5.0 °F 79% 29.97 in 2.0 mi South 9.2 mph - N/A Snow Light Snow
8:12 PM 10.4 °F -4.1 °F 5.0 °F 79% 29.97 in 2.5 mi South 11.5 mph 17.3 mph N/A Snow Light Snow
8:20 PM 10.4 °F -1.5 °F 5.0 °F 79% 29.97 in 2.5 mi South 8.1 mph - N/A Snow Light Snow
8:42 PM 10.4 °F -1.5 °F 6.8 °F 85% 29.97 in 2.5 mi South 8.1 mph - N/A Snow Light Snow
9:03 PM 10.4 °F -0.4 °F 6.8 °F 85% 29.97 in 3.0 mi South 6.9 mph - N/A Snow Light Snow
11:41 PM 10.4 °F 2.2 °F 6.8 °F 85% 29.96 in 3.0 mi SSW 4.6 mph - N/A Snow Light Snow